EW3302 Weather Reports


Display with metric or nautical units.
time (UTC)temp
F
wind
direction
speed
MPH
gust
MPH
rain 1hr
in
rain 24hr
in
rain mn
in
humidity
%
barometer
mb
20260502130517 71 225 10.0 17.0 0.00 0.00 0.00 28 1007.2
20260502123516 71 203 9.0 17.0 0.00 0.00 0.00 28 1007.5
20260502122517 72 203 9.0 19.0 0.00 0.00 0.00 28 1007.6
20260502121516 72 203 7.0 12.0 0.00 0.00 0.00 28 1007.7
20260502120537 71 225 10.0 17.0 0.00 0.00 0.00 25 1007.9
20260502115517 71 225 9.0 16.0 0.00 0.00 0.00 26 1008.0
20260502114517 71 248 10.0 19.0 0.00 0.00 0.00 25 1008.1
20260502113517 71 203 8.0 19.0 0.00 0.00 0.00 26 1008.2
20260502112516 70 225 7.0 12.0 0.00 0.00 0.00 24 1008.3
20260502111517 69 248 8.0 14.0 0.00 0.00 0.00 27 1008.5
20260502110516 70 225 8.0 15.0 0.00 0.00 0.00 25 1008.6
20260502105536 69 248 9.0 19.0 0.00 0.00 0.00 23 1008.7
20260502104516 69 203 11.0 18.0 0.00 0.00 0.00 25 1008.8
20260502103517 69 225 8.0 14.0 0.00 0.00 0.00 26 1008.9
20260502102516 69 203 10.0 15.0 0.00 0.00 0.00 26 1008.9
20260502101516 68 203 5.0 11.0 0.00 0.00 0.00 30 1009.2
20260502100517 67 225 8.0 17.0 0.00 0.00 0.00 26 1009.4
20260502090516 65 203 10.0 15.0 0.00 0.00 0.00 30 1010.0
20260502071516 60 203 8.0 15.0 0.00 0.00 0.00 42 1010.9
20260502070516 60 225 5.0 11.0 0.00 0.00 0.00 42 1011.0
20260502065516 59 225 5.0 13.0 0.00 0.00 0.00 44 1011.2
20260502064517 59 225 6.0 14.0 0.00 0.00 0.00 42 1011.1
20260502063516 59 225 5.0 12.0 0.00 0.00 0.00 44 1011.2
20260502062516 58 248 5.0 9.0 0.00 0.00 0.00 45 1011.2
20260502061516 57 225 6.0 12.0 0.00 0.00 0.00 46 1011.3
20260502060557 57 225 7.0 16.0 0.00 0.00 0.00 46 1011.2
20260502055517 56 248 6.0 13.0 0.00 0.00 0.00 47 1011.3
20260502054516 55 248 8.0 15.0 0.00 0.00 0.00 49 1011.3
20260502053516 55 225 6.0 11.0 0.00 0.00 0.00 51 1011.3
20260502052516 54 225 4.0 9.0 0.00 0.00 0.00 52 1011.3
20260502051516 53 270 4.0 10.0 0.00 0.00 0.00 54 1011.4
20260502050516 53 248 3.0 9.0 0.00 0.00 0.00 54 1011.4
20260502045516 52 225 5.0 11.0 0.00 0.00 0.00 56 1011.5
20260502044516 52 203 4.0 10.0 0.00 0.00 0.00 58 1011.5
20260502043516 51 180 4.0 10.0 0.00 0.00 0.00 60 1011.6
20260502042536 49 270 3.0 8.0 0.00 0.00 0.00 63 1011.6
20260502041516 47 68 2.0 4.0 0.00 0.00 0.00 66 1011.7
20260502040516 47 338 1.0 4.0 0.00 0.00 0.00 67 1011.8
20260502035516 45 315 1.0 2.0 0.00 0.00 0.00 70 1011.8
20260502034516 44 68 1.0 2.0 0.00 0.00 0.00 71 1011.8
20260502033516 44 23 1.0 2.0 0.00 0.00 0.00 72 1011.8
20260502032516 43 225 1.0 3.0 0.00 0.00 0.00 72 1011.9
20260502031536 43 23 2.0 3.0 0.00 0.00 0.00 73 1012.1
20260502030516 42 45 1.0 3.0 0.00 0.00 0.00 74 1012.1
20260502025516 42 225 1.0 3.0 0.00 0.00 0.00 74 1012.3
20260502024516 42 0.0 3.0 0.00 0.00 0.00 74 1012.4
20260502023516 42 0.0 1.0 0.00 0.00 0.00 73 1012.4
20260502022516 43 338 1.0 2.0 0.00 0.00 0.00 73 1012.5
20260502021516 43 0.0 1.0 0.00 0.00 0.00 73 1012.6
20260502020516 43 338 1.0 2.0 0.00 0.00 0.00 72 1012.7
20260502015516 44 0.0 2.0 0.00 0.00 0.00 72 1012.8
20260502014516 44 45 1.0 3.0 0.00 0.00 0.00 70 1013.0
20260502013516 45 45 1.0 2.0 0.00 0.00 0.00 69 1013.1
20260502012516 45 0.0 1.0 0.00 0.00 0.00 67 1013.1
20260502011516 46 45 1.0 3.0 0.00 0.00 0.00 66 1013.3
20260502010516 46 0 1.0 2.0 0.00 0.00 0.00 65 1013.4
20260502005516 47 0 1.0 2.0 0.00 0.00 0.00 64 1013.5
20260502004516 48 0.0 1.0 0.00 0.00 0.00 62 1013.6
20260502003516 49 0.0 1.0 0.00 0.00 0.00 60 1013.7
20260502002516 50 0 2.0 3.0 0.00 0.00 0.00 59 1013.8
20260502001516 52 338 1.0 2.0 0.00 0.00 0.00 56 1013.9
20260502000516 52 270 2.0 5.0 0.00 0.00 0.00 55 1014.0
20260501235516 53 315 2.0 5.0 0.00 0.00 0.00 54 1014.1
20260501234536 53 0 1.0 6.0 0.00 0.00 0.00 53 1014.2
20260501233516 53 293 3.0 5.0 0.00 0.00 0.00 53 1014.2
20260501232516 52 203 2.0 5.0 0.00 0.00 0.00 56 1014.2
20260501231516 52 315 1.0 3.0 0.00 0.00 0.00 55 1014.3
20260501230516 52 0.0 3.0 0.00 0.00 0.00 54 1014.4
20260501225516 53 293 1.0 3.0 0.00 0.00 0.00 53 1014.5
20260501224516 54 293 1.0 3.0 0.00 0.00 0.00 52 1014.5
20260501223516 54 225 3.0 7.0 0.00 0.00 0.00 51 1014.5
20260501222516 54 23 1.0 3.0 0.00 0.00 0.00 52 1014.6
20260501221516 54 0 2.0 4.0 0.00 0.00 0.00 52 1014.5
20260501220516 55 23 1.0 3.0 0.00 0.00 0.00 50 1014.7
20260501215517 56 113 1.0 3.0 0.00 0.00 0.00 48 1014.7
20260501214517 57 45 1.0 2.0 0.00 0.00 0.00 46 1014.8
20260501213517 57 180 2.0 6.0 0.00 0.00 0.00 46 1014.9
20260501212517 58 158 1.0 3.0 0.00 0.00 0.00 44 1015.0
20260501211517 59 225 2.0 4.0 0.00 0.00 0.00 43 1015.0
20260501210517 60 248 5.0 10.0 0.00 0.00 0.00 41 1015.1
20260501205537 60 225 1.0 3.0 0.00 0.00 0.00 41 1015.1
20260501204517 61 225 2.0 4.0 0.00 0.00 0.00 39 1015.1
20260501203517 62 203 5.0 11.0 0.00 0.00 0.00 39 1015.1
20260501202517 62 203 5.0 12.0 0.00 0.00 0.00 39 1015.1
20260501201517 63 203 7.0 14.0 0.00 0.00 0.00 38 1015.0
20260501200517 63 225 4.0 9.0 0.00 0.00 0.00 37 1015.1
20260501195517 64 225 4.0 12.0 0.00 0.00 0.00 36 1015.1
20260501194537 64 225 5.0 10.0 0.00 0.00 0.00 35 1015.1
20260501193517 65 225 8.0 14.0 0.00 0.00 0.00 35 1015.1
20260501192517 66 225 6.0 13.0 0.00 0.00 0.00 34 1015.0
20260501191517 66 225 6.0 11.0 0.00 0.00 0.00 33 1015.1
20260501190517 66 225 6.0 11.0 0.00 0.00 0.00 33 1015.0
20260501185517 67 225 7.0 15.0 0.00 0.00 0.00 32 1014.8
20260501184517 67 225 3.0 6.0 0.00 0.00 0.00 31 1014.8
20260501183517 68 225 4.0 9.0 0.00 0.00 0.00 31 1014.6
20260501182517 69 248 5.0 9.0 0.00 0.00 0.00 29 1014.5
20260501181557 69 225 5.0 14.0 0.00 0.00 0.00 29 1014.5
20260501180517 70 225 6.0 11.0 0.00 0.00 0.00 28 1014.5
20260501175517 70 225 8.0 18.0 0.00 0.00 0.00 27 1014.5
20260501174537 71 225 8.0 14.0 0.00 0.00 0.00 26 1014.5
20260501173517 72 225 9.0 14.0 0.00 0.00 0.00 26 1014.5
20260501172517 72 203 6.0 14.0 0.00 0.00 0.00 26 1014.7
20260501171537 73 203 9.0 20.0 0.00 0.00 0.00 25 1014.5
20260501170517 73 203 8.0 17.0 0.00 0.00 0.00 25 1014.6
20260501165517 74 225 9.0 17.0 0.00 0.00 0.00 25 1014.6
20260501164517 74 225 9.0 17.0 0.00 0.00 0.00 25 1014.7
20260501163517 74 203 10.0 20.0 0.00 0.00 0.00 25 1014.8
20260501162517 74 225 8.0 15.0 0.00 0.00 0.00 25 1014.9
20260501161517 74 203 9.0 21.0 0.00 0.00 0.00 27 1014.9
20260501160517 75 225 8.0 16.0 0.00 0.00 0.00 25 1014.9
20260501155537 75 248 7.0 14.0 0.00 0.00 0.00 26 1015.0
20260501153517 76 225 6.0 14.0 0.00 0.00 0.00 25 1015.2
20260501152517 76 225 6.0 15.0 0.00 0.00 0.00 23 1015.3
20260501151517 76 225 8.0 15.0 0.00 0.00 0.00 23 1015.4
20260501150517 76 248 7.0 13.0 0.00 0.00 0.00 24 1015.5
20260501145517 76 225 10.0 22.0 0.00 0.00 0.00 24 1015.5
20260501144517 76 248 8.0 14.0 0.00 0.00 0.00 23 1015.6
20260501143517 76 225 10.0 19.0 0.00 0.00 0.00 25 1015.8
20260501142537 76 225 9.0 18.0 0.00 0.00 0.00 25 1016.0
20260501141517 76 225 7.0 20.0 0.00 0.00 0.00 24 1016.0